Location: Clermont
(50.2608°N, 4.3172°E)
Time: 02:21:21
(UTC+00:00)

NOSS 3-2 (C) - Pass Details

Date: 13 August 2020
Orbit: 793 x 1419 km, 63.4° (Epoch: 21 September)

Event Time Altitude Azimuth Distance (km) Brightness Sun altitude
Rises 19:39:20 0° 176° (S) 3,341 6.0 -5.7°
Reaches altitude 10° 19:42:07 10° 162° (SSE) 2,466 5.2 -6.1°
Maximum altitude 19:46:31 24° 111° (ESE) 1,799 4.4 -6.7°
Drops below altitude 10° 19:51:21 10° 61° (ENE) 2,739 5.6 -7.4°
Sets 19:54:36 0° 48° (NE) 3,804 6.4 -7.8°
